BEE1936 EHAM-EGLC

Flight info

Callsign BEE1936
Flight time 0h 58m
Altitude 20000
Route IDRID L980 XAMAN
Aircraft DH8D/M-SDE2E3FGRY/H

Departure

Time 2026-05-04 20:42
Airport Amsterdam Airport Schiphol (EHAM)

Arrival

Time 2026-05-04 21:41
Airport London City Airport (EGLC)
Time Latitude Longitude Altitude Speed Heading
2026-05-04 20:24 52.30715 4.77156 -2 ft 0 kts
2026-05-04 20:31 52.30716 4.77156 -2 ft 0 kts
2026-05-04 20:31 52.30709 4.77155 -2 ft 2 kts
2026-05-04 20:31 52.30694 4.77154 -2 ft 2 kts
2026-05-04 20:31 52.30679 4.77152 -2 ft 2 kts
2026-05-04 20:32 52.30664 4.77151 -2 ft 2 kts
2026-05-04 20:32 52.30652 4.77140 -2 ft 2 kts 58°
2026-05-04 20:32 52.30649 4.77121 -2 ft 1 kts 95°
2026-05-04 20:32 52.30649 4.77117 -2 ft 0 kts 95°
2026-05-04 20:35 52.30649 4.77118 -2 ft 0 kts 95°
2026-05-04 20:35 52.30646 4.77232 -2 ft 14 kts 93°
2026-05-04 20:36 52.30640 4.77410 -2 ft 16 kts 89°
2026-05-04 20:36 52.30669 4.77582 -2 ft 17 kts 24°
2026-05-04 20:36 52.30793 4.77602 -2 ft 19 kts
2026-05-04 20:36 52.30933 4.77616 -2 ft 21 kts
2026-05-04 20:37 52.31089 4.77630 -2 ft 23 kts
2026-05-04 20:37 52.31255 4.77644 -2 ft 24 kts
2026-05-04 20:37 52.31412 4.77654 -2 ft 17 kts 354°
2026-05-04 20:37 52.31525 4.77538 -2 ft 22 kts 312°
2026-05-04 20:38 52.31577 4.77286 -2 ft 27 kts 266°
2026-05-04 20:38 52.31564 4.76947 -2 ft 31 kts 266°
2026-05-04 20:38 52.31551 4.76567 -2 ft 35 kts 266°
2026-05-04 20:38 52.31534 4.76149 -1 ft 38 kts 268°
2026-05-04 20:39 52.31520 4.75704 -1 ft 36 kts 266°
2026-05-04 20:39 52.31508 4.75340 0 ft 27 kts 266°
2026-05-04 20:39 52.31499 4.75056 0 ft 24 kts 268°
2026-05-04 20:39 52.31492 4.74753 0 ft 28 kts 269°
2026-05-04 20:40 52.31477 4.74414 -1 ft 30 kts 267°
2026-05-04 20:40 52.31494 4.74180 -1 ft 14 kts 311°
2026-05-04 20:40 52.31488 4.74149 -1 ft 10 kts 205°
2026-05-04 20:40 52.31348 4.74130 -1 ft 23 kts 183°
2026-05-04 20:41 52.31148 4.74113 -1 ft 15 kts 182°
2026-05-04 20:41 52.31102 4.74039 -1 ft 10 kts 266°
2026-05-04 20:41 52.31139 4.73950 -1 ft 9 kts 332°
2026-05-04 20:41 52.31193 4.73903 -2 ft 9 kts 334°
2026-05-04 20:42 52.31290 4.73851 -2 ft 27 kts 351°
2026-05-04 20:42 52.31704 4.73871 -1 ft 103 kts
2026-05-04 20:42 52.32630 4.73961 173 ft 147 kts
2026-05-04 20:42 52.33584 4.74139 980 ft 146 kts
2026-05-04 20:43 52.34636 4.74462 1570 ft 161 kts 15°
2026-05-04 20:43 52.35809 4.74813 1930 ft 185 kts
2026-05-04 20:43 52.37002 4.73946 2423 ft 204 kts 315°
2026-05-04 20:43 52.37460 4.71770 3016 ft 215 kts 268°
2026-05-04 20:44 52.36930 4.69499 3717 ft 217 kts 240°
2026-05-04 20:44 52.36161 4.67375 4424 ft 219 kts 241°
2026-05-04 20:44 52.35424 4.65251 5150 ft 219 kts 242°
2026-05-04 20:44 52.34681 4.63039 5616 ft 234 kts 243°
2026-05-04 20:45 52.33866 4.60533 5745 ft 258 kts 244°
2026-05-04 20:45 52.33036 4.57922 6268 ft 262 kts 244°
2026-05-04 20:45 52.32205 4.55265 6859 ft 264 kts 245°
2026-05-04 20:45 52.31379 4.52597 7409 ft 266 kts 245°
2026-05-04 20:46 52.30539 4.49868 7952 ft 268 kts 245°
2026-05-04 20:46 52.29707 4.47151 8524 ft 269 kts 245°
2026-05-04 20:46 52.28878 4.44437 9039 ft 272 kts 245°
2026-05-04 20:46 52.28040 4.41687 9591 ft 274 kts 245°
2026-05-04 20:47 52.27182 4.38867 10129 ft 276 kts 245°
2026-05-04 20:47 52.26335 4.36082 10647 ft 278 kts 245°
2026-05-04 20:47 52.25470 4.33238 11179 ft 281 kts 244°
2026-05-04 20:47 52.24607 4.30399 11705 ft 284 kts 244°
2026-05-04 20:48 52.23726 4.27504 12224 ft 286 kts 244°
2026-05-04 20:48 52.22837 4.24584 12762 ft 289 kts 244°
2026-05-04 20:48 52.21949 4.21674 13281 ft 290 kts 244°
2026-05-04 20:48 52.21056 4.18745 13792 ft 291 kts 244°
2026-05-04 20:49 52.20156 4.15799 14256 ft 293 kts 244°
2026-05-04 20:49 52.19248 4.12833 14770 ft 295 kts 244°
2026-05-04 20:49 52.18330 4.09833 15265 ft 296 kts 244°
2026-05-04 20:49 52.17410 4.06833 15668 ft 299 kts 244°
2026-05-04 20:50 52.16489 4.03833 16102 ft 301 kts 243°
2026-05-04 20:50 52.15555 4.00792 16500 ft 303 kts 243°
2026-05-04 20:50 52.14610 3.97722 16908 ft 305 kts 243°
2026-05-04 20:50 52.13659 3.94635 17266 ft 307 kts 243°
2026-05-04 20:51 52.12696 3.91515 17628 ft 309 kts 243°
2026-05-04 20:51 52.11741 3.88422 18016 ft 310 kts 242°
2026-05-04 20:51 52.10771 3.85286 18354 ft 311 kts 242°
2026-05-04 20:51 52.09796 3.82138 18711 ft 312 kts 243°
2026-05-04 20:52 52.08823 3.79001 19098 ft 312 kts 243°
2026-05-04 20:52 52.07837 3.75824 19397 ft 314 kts 243°
2026-05-04 20:52 52.06862 3.72688 19722 ft 314 kts 243°
2026-05-04 20:52 52.05880 3.69533 19930 ft 319 kts 243°
2026-05-04 20:53 52.04860 3.66259 19980 ft 326 kts 243°
2026-05-04 20:53 52.03820 3.62929 19989 ft 332 kts 243°
2026-05-04 20:53 52.02782 3.59609 19980 ft 337 kts 243°
2026-05-04 20:53 52.01706 3.56171 19989 ft 341 kts 243°
2026-05-04 20:54 52.00637 3.52756 19985 ft 343 kts 243°
2026-05-04 20:54 51.99606 3.49225 19978 ft 345 kts 249°
2026-05-04 20:54 51.98937 3.45535 19995 ft 346 kts 256°
2026-05-04 20:54 51.98333 3.41716 19997 ft 348 kts 256°
2026-05-04 20:55 51.97738 3.37952 20002 ft 349 kts 256°
2026-05-04 20:55 51.97131 3.34130 19995 ft 349 kts 255°
2026-05-04 20:55 51.96525 3.30341 19994 ft 350 kts 255°
2026-05-04 20:55 51.95911 3.26525 19996 ft 350 kts 255°
2026-05-04 20:56 51.95294 3.22701 19993 ft 350 kts 255°
2026-05-04 20:56 51.94684 3.18939 19993 ft 350 kts 255°
2026-05-04 20:56 51.94058 3.15089 19996 ft 351 kts 255°
2026-05-04 20:56 51.93438 3.11287 19994 ft 351 kts 255°
2026-05-04 20:57 51.92810 3.07454 19992 ft 352 kts 255°
2026-05-04 20:57 51.92185 3.03643 19992 ft 352 kts 255°
2026-05-04 20:57 51.91561 2.99853 19990 ft 352 kts 255°
2026-05-04 20:57 51.90928 2.96016 19992 ft 352 kts 255°
2026-05-04 20:58 51.90300 2.92225 19991 ft 352 kts 255°
2026-05-04 20:58 51.89663 2.88380 19984 ft 352 kts 255°
2026-05-04 20:58 51.89032 2.84584 19984 ft 352 kts 255°
2026-05-04 20:58 51.88396 2.80767 19986 ft 352 kts 255°
2026-05-04 20:59 51.87757 2.76937 19989 ft 352 kts 255°
2026-05-04 20:59 51.87127 2.73171 19991 ft 351 kts 255°
2026-05-04 20:59 51.86487 2.69355 19986 ft 351 kts 255°
2026-05-04 20:59 51.85848 2.65557 19985 ft 351 kts 255°
2026-05-04 21:00 51.85208 2.61754 19991 ft 351 kts 255°
2026-05-04 21:00 51.84567 2.57957 19997 ft 351 kts 255°
2026-05-04 21:00 51.83926 2.54166 20003 ft 351 kts 255°
2026-05-04 21:00 51.83280 2.50361 20006 ft 351 kts 255°
2026-05-04 21:01 51.82636 2.46571 20010 ft 351 kts 255°
2026-05-04 21:01 51.81989 2.42772 20010 ft 351 kts 255°
2026-05-04 21:01 51.81347 2.39010 20015 ft 351 kts 255°
2026-05-04 21:01 51.80700 2.35224 20014 ft 351 kts 255°
2026-05-04 21:02 51.80052 2.31447 20016 ft 351 kts 254°
2026-05-04 21:02 51.79393 2.27611 20019 ft 351 kts 254°
2026-05-04 21:02 51.78743 2.23819 20020 ft 351 kts 254°
2026-05-04 21:02 51.78309 2.19972 20022 ft 351 kts 263°
2026-05-04 21:03 51.78079 2.16039 20017 ft 351 kts 264°
2026-05-04 21:03 51.77862 2.12164 20020 ft 351 kts 264°
2026-05-04 21:03 51.77644 2.08326 19675 ft 338 kts 264°
2026-05-04 21:03 51.77423 2.04593 19036 ft 329 kts 263°
2026-05-04 21:04 51.77208 2.00947 18452 ft 335 kts 263°
2026-05-04 21:04 51.76987 1.97178 17923 ft 345 kts 264°
2026-05-04 21:04 51.76754 1.93244 17380 ft 352 kts 264°
2026-05-04 21:04 51.76521 1.89349 16852 ft 356 kts 264°
2026-05-04 21:05 51.76280 1.85358 16309 ft 354 kts 264°
2026-05-04 21:05 51.76044 1.81499 15760 ft 346 kts 264°
2026-05-04 21:05 51.75807 1.77661 15200 ft 340 kts 264°
2026-05-04 21:05 51.75576 1.73937 14655 ft 335 kts 264°
2026-05-04 21:06 51.75343 1.70202 14101 ft 331 kts 264°
2026-05-04 21:06 51.75114 1.66559 13555 ft 327 kts 264°
2026-05-04 21:06 51.74888 1.62966 13011 ft 324 kts 264°
2026-05-04 21:06 51.74659 1.59352 12459 ft 321 kts 264°
2026-05-04 21:07 51.74435 1.55824 11916 ft 318 kts 265°
2026-05-04 21:07 51.74210 1.52270 11362 ft 316 kts 265°
2026-05-04 21:07 51.73988 1.48785 10813 ft 313 kts 266°
2026-05-04 21:07 51.73826 1.45303 10258 ft 310 kts 268°
2026-05-04 21:08 51.73618 1.41887 9701 ft 307 kts 263°
2026-05-04 21:08 51.73209 1.38557 9157 ft 304 kts 260°
2026-05-04 21:08 51.72760 1.35274 8598 ft 297 kts 260°
2026-05-04 21:08 51.72310 1.32082 8043 ft 287 kts 258°
2026-05-04 21:09 51.71871 1.29062 7750 ft 268 kts 258°
2026-05-04 21:09 51.71454 1.26221 7422 ft 255 kts 258°
2026-05-04 21:09 51.71044 1.23449 7025 ft 246 kts 258°
2026-05-04 21:09 51.70655 1.20833 6633 ft 239 kts 258°
2026-05-04 21:10 51.70271 1.18215 6257 ft 244 kts 259°
2026-05-04 21:10 51.69877 1.15518 5885 ft 249 kts 258°
2026-05-04 21:10 51.69445 1.12800 5510 ft 253 kts 257°
2026-05-04 21:10 51.69008 1.10062 5135 ft 256 kts 257°
2026-05-04 21:11 51.68575 1.07296 4856 ft 254 kts 257°
2026-05-04 21:11 51.68151 1.04543 4553 ft 253 kts 258°
2026-05-04 21:11 51.67736 1.01810 4275 ft 252 kts 258°
2026-05-04 21:11 51.67324 0.99074 3979 ft 252 kts 258°
2026-05-04 21:12 51.66909 0.96298 3838 ft 251 kts 258°
2026-05-04 21:12 51.66509 0.93607 3887 ft 246 kts 258°
2026-05-04 21:12 51.66114 0.90950 3931 ft 245 kts 258°
2026-05-04 21:12 51.65712 0.88220 3954 ft 255 kts 259°
2026-05-04 21:13 51.65297 0.85388 3963 ft 264 kts 258°
2026-05-04 21:13 51.64861 0.82569 3945 ft 250 kts 257°
2026-05-04 21:13 51.64425 0.79988 3939 ft 234 kts 257°
2026-05-04 21:13 51.64004 0.77505 3941 ft 221 kts 257°
2026-05-04 21:14 51.63602 0.75111 3957 ft 228 kts 257°
2026-05-04 21:14 51.63189 0.72613 3964 ft 235 kts 257°
2026-05-04 21:14 51.62752 0.69942 3987 ft 258 kts 257°
2026-05-04 21:14 51.62303 0.67191 3963 ft 251 kts 257°
2026-05-04 21:15 51.61861 0.64483 3956 ft 248 kts 257°
2026-05-04 21:15 51.61424 0.61832 3955 ft 246 kts 257°
2026-05-04 21:15 51.60976 0.59145 3963 ft 245 kts 257°
2026-05-04 21:15 51.60537 0.56493 3963 ft 243 kts 257°
2026-05-04 21:16 51.60094 0.53878 3976 ft 242 kts 257°
2026-05-04 21:16 51.59646 0.51239 3967 ft 247 kts 258°
2026-05-04 21:16 51.59196 0.48543 3967 ft 253 kts 257°
2026-05-04 21:16 51.58733 0.45790 3962 ft 257 kts 255°
2026-05-04 21:17 51.57919 0.43218 3966 ft 258 kts 237°
2026-05-04 21:17 51.56912 0.40841 3951 ft 254 kts 237°
2026-05-04 21:17 51.55932 0.38513 3952 ft 251 kts 237°
2026-05-04 21:17 51.54958 0.36212 3956 ft 248 kts 237°
2026-05-04 21:18 51.53990 0.33919 3955 ft 246 kts 237°
2026-05-04 21:18 51.53031 0.31653 3956 ft 244 kts 236°
2026-05-04 21:18 51.52075 0.29406 3940 ft 243 kts 236°
2026-05-04 21:18 51.51123 0.27177 3913 ft 243 kts 236°
2026-05-04 21:19 51.50160 0.24926 3887 ft 243 kts 236°
2026-05-04 21:19 51.49203 0.22694 3861 ft 243 kts 236°
2026-05-04 21:19 51.48251 0.20474 3835 ft 243 kts 236°
2026-05-04 21:19 51.47288 0.18224 3809 ft 243 kts 236°
2026-05-04 21:20 51.46388 0.15936 3773 ft 243 kts 246°
2026-05-04 21:20 51.46093 0.13309 3669 ft 241 kts 274°
2026-05-04 21:20 51.46215 0.10623 3563 ft 244 kts 276°
2026-05-04 21:20 51.46348 0.07902 3445 ft 247 kts 276°
2026-05-04 21:21 51.46488 0.05147 3324 ft 249 kts 277°
2026-05-04 21:21 51.46629 0.02361 3200 ft 251 kts 277°
2026-05-04 21:21 51.46761 -0.00401 3063 ft 239 kts 276°
2026-05-04 21:21 51.46871 -0.02936 2905 ft 221 kts 276°
2026-05-04 21:22 51.46967 -0.05288 2747 ft 203 kts 276°
2026-05-04 21:22 51.47050 -0.07451 2575 ft 185 kts 276°
2026-05-04 21:22 51.47115 -0.09414 2383 ft 167 kts 276°
2026-05-04 21:22 51.47179 -0.11233 2217 ft 159 kts 281°
2026-05-04 21:23 51.47691 -0.12780 2159 ft 175 kts 326°
2026-05-04 21:23 51.48943 -0.13440 2143 ft 199 kts
2026-05-04 21:23 51.50190 -0.12823 2006 ft 182 kts 36°
2026-05-04 21:23 51.51113 -0.11549 1894 ft 169 kts 43°
2026-05-04 21:24 51.51641 -0.09915 1761 ft 170 kts 81°
2026-05-04 21:24 51.51505 -0.08040 1670 ft 169 kts 102°
2026-05-04 21:24 51.51176 -0.06382 1562 ft 140 kts 103°
2026-05-04 21:24 51.50921 -0.04901 1604 ft 139 kts 99°
2026-05-04 21:25 51.50762 -0.03420 1595 ft 129 kts 93°
2026-05-04 21:25 51.50691 -0.02022 1533 ft 125 kts 92°
2026-05-04 21:25 51.50638 -0.00635 1202 ft 126 kts 88°
2026-05-04 21:25 51.50642 0.00740 797 ft 121 kts 88°
2026-05-04 21:26 51.50620 0.02051 527 ft 119 kts 92°
2026-05-04 21:26 51.50574 0.03352 292 ft 116 kts 91°
2026-05-04 21:26 51.50549 0.04671 54 ft 119 kts 92°
2026-05-04 21:26 51.50485 0.06019 615 ft 124 kts 95°
2026-05-04 21:27 51.50301 0.07425 1382 ft 141 kts 112°
2026-05-04 21:27 51.49484 0.08413 1889 ft 160 kts 161°
2026-05-04 21:27 51.48328 0.08195 2120 ft 184 kts 205°
2026-05-04 21:27 51.47430 0.06634 2208 ft 206 kts 248°
2026-05-04 21:28 51.46568 0.04689 2367 ft 219 kts 221°
2026-05-04 21:28 51.45189 0.03657 2257 ft 219 kts 193°
2026-05-04 21:28 51.43826 0.02722 2070 ft 215 kts 219°
2026-05-04 21:28 51.43039 0.00858 1987 ft 192 kts 258°
2026-05-04 21:29 51.43142 -0.01339 2000 ft 211 kts 296°
2026-05-04 21:29 51.43951 -0.03285 1989 ft 215 kts 312°
2026-05-04 21:29 51.44856 -0.05128 1962 ft 202 kts 311°
2026-05-04 21:29 51.45889 -0.06424 1804 ft 185 kts 348°
2026-05-04 21:30 51.47058 -0.06339 1733 ft 159 kts 12°
2026-05-04 21:30 51.48123 -0.05856 1538 ft 163 kts 25°
2026-05-04 21:30 51.49090 -0.04908 1589 ft 162 kts 41°
2026-05-04 21:30 51.49836 -0.03662 1479 ft 145 kts 50°
2026-05-04 21:31 51.50657 -0.01082 1195 ft 131 kts 75°
2026-05-04 21:31 51.50679 0.00352 922 ft 126 kts 93°
2026-05-04 21:31 51.50636 0.01737 676 ft 123 kts 90°
2026-05-04 21:32 51.50591 0.03122 380 ft 126 kts 91°
2026-05-04 21:32 51.50555 0.04500 71 ft 124 kts 93°
2026-05-04 21:32 51.50502 0.05894 260 ft 131 kts 95°
2026-05-04 21:32 51.50476 0.07413 901 ft 149 kts 91°
2026-05-04 21:33 51.50369 0.09056 1533 ft 156 kts 93°
2026-05-04 21:33 51.49875 0.10765 1739 ft 187 kts 134°
2026-05-04 21:33 51.48616 0.11373 1883 ft 209 kts 185°
2026-05-04 21:33 51.47390 0.10117 1914 ft 219 kts 237°
2026-05-04 21:34 51.47061 0.07894 1838 ft 194 kts 278°
2026-05-04 21:34 51.47382 0.05941 1881 ft 168 kts 292°
2026-05-04 21:34 51.47744 0.04261 1813 ft 154 kts 295°
2026-05-04 21:34 51.48124 0.02751 1808 ft 140 kts 300°
2026-05-04 21:35 51.48739 0.01594 1572 ft 138 kts 336°
2026-05-04 21:35 51.49640 0.01214 1233 ft 134 kts 354°
2026-05-04 21:35 51.50457 0.01663 693 ft 130 kts 60°
2026-05-04 21:35 51.50602 0.03051 376 ft 129 kts 92°
2026-05-04 21:36 51.50556 0.04466 83 ft 128 kts 93°
2026-05-04 21:36 51.50503 0.05991 423 ft 147 kts 94°
2026-05-04 21:36 51.50361 0.07749 1043 ft 169 kts 107°
2026-05-04 21:36 51.49458 0.08977 1503 ft 190 kts 163°
2026-05-04 21:37 51.48131 0.08568 1749 ft 210 kts 213°
2026-05-04 21:37 51.47107 0.06796 1780 ft 220 kts 246°
2026-05-04 21:37 51.46801 0.04412 1996 ft 228 kts 275°
2026-05-04 21:37 51.46991 0.01805 2051 ft 241 kts 281°
2026-05-04 21:38 51.47308 -0.00847 2020 ft 242 kts 285°
2026-05-04 21:38 51.47683 -0.03457 1843 ft 239 kts 287°
2026-05-04 21:38 51.48040 -0.05933 1831 ft 223 kts 286°
2026-05-04 21:38 51.48764 -0.07964 1939 ft 199 kts 326°
2026-05-04 21:39 51.50017 -0.08175 1965 ft 189 kts 26°
2026-05-04 21:39 51.50749 -0.06565 2055 ft 181 kts 76°
2026-05-04 21:39 51.50846 -0.04682 2252 ft 159 kts 84°
2026-05-04 21:39 51.50807 -0.02947 1820 ft 159 kts 91°
2026-05-04 21:40 51.50730 -0.01189 1377 ft 155 kts 89°
2026-05-04 21:40 51.50693 0.00505 931 ft 156 kts 90°
2026-05-04 21:40 51.50624 0.02206 542 ft 150 kts 92°
2026-05-04 21:40 51.50574 0.03833 198 ft 141 kts 92°
2026-05-04 21:41 51.50529 0.05313 27 ft 122 kts 94°
2026-05-04 21:41 51.50494 0.06260 27 ft 34 kts 91°
2026-05-04 21:41 51.50453 0.06338 27 ft 10 kts 159°
2026-05-04 21:41 51.50414 0.06287 27 ft 9 kts 272°
2026-05-04 21:42 51.50417 0.06180 27 ft 11 kts 273°
2026-05-04 21:42 51.50423 0.06016 27 ft 17 kts 273°
2026-05-04 21:42 51.50429 0.05803 27 ft 20 kts 272°
2026-05-04 21:42 51.50436 0.05559 27 ft 23 kts 273°
2026-05-04 21:43 51.50445 0.05296 27 ft 21 kts 273°
2026-05-04 21:43 51.50457 0.05054 26 ft 20 kts 275°
2026-05-04 21:43 51.50466 0.04847 26 ft 17 kts 273°
2026-05-04 21:43 51.50471 0.04686 26 ft 11 kts 273°
2026-05-04 21:44 51.50474 0.04568 26 ft 10 kts 273°
2026-05-04 21:44 51.50471 0.04532 26 ft 2 kts 207°
2026-05-04 21:44 51.50452 0.04524 26 ft 4 kts 182°
2026-05-04 21:44 51.50445 0.04512 25 ft 1 kts 303°
2026-05-04 21:45 51.50446 0.04512 25 ft 0 kts 312°